Location: Praha
(50.0830°N, 14.4670°E)
Time: 05:40:23
(UTC+01:00)

ISS - Pass Details

Date: 27 February 2020
Orbit: 415 x 423 km, 51.6° (Epoch: 27 February)

Event Time Altitude Azimuth Distance (km) Brightness Sun altitude
Exits shadow 05:59:19 11° 251° (WSW) 1,427 -1.6 -9.1°
Maximum altitude 06:02:30 87° 168° (SSE) 426 -3.7 -8.5°
Drops below altitude 10° 06:05:54 10° 75° (ENE) 1,508 0.4 -8.0°
Sets 06:08:01 0° 75° (ENE) 2,376 1.7 -7.7°
